Terminal Aerodrome Forecast
Issued by NWS

Home | Current Version | Previous Version | Text Only | Print | Product List | Glossary On
Versions: 1 2 3 4 5 6 7 8 9 10 11 12 13 14 15 16 17 18 19 20 21 22 23
000
FTUS46 KLOX 052347
TAFSBP
TAF
KSBP 052347Z 0600/0624 30013KT P6SM SKC
     FM060300 32007KT P6SM SKC
     FM060500 VRB03KT P6SM OVC012
     FM060900 VRB03KT P6SM OVC008
     FM061600 VRB03KT P6SM BKN012
     FM061700 14005KT P6SM SCT017
     FM062000 31013KT P6SM SKC=

USA.gov is the U.S. government's official web portal to all federal, state and local government web resources and services.